• In Belarus
  • List of Countries
  • For 7 days
  • Water Temperature
  • Satellite Maps
  • Weather Map
  • Weather Widgets
  • user-avatar
    Login

    Hourly Weather Saint-Sauveur

    Today, 21 January, Sunday

    Time Temperature Precipitation Wind Pressure Humidity
    00:00 -7°C° 0 mm 2 mps 739 mmHg 85%
    01:00 -6°C° 0 mm 1 mps 739 mmHg 88%
    02:00 -6°C° 0 mm 1 mps 740 mmHg 88%
    03:00 -6°C° 0 mm 1 mps 740 mmHg 87%
    04:00 -6°C° 0 mm 1 mps 741 mmHg 87%
    05:00 -6°C° 0 mm 1 mps 741 mmHg 88%
    06:00 -7°C° 0 mm 1 mps 742 mmHg 89%
    07:00 -7°C° 0 mm 0 mps 742 mmHg 90%
    08:00 -6°C° 0 mm 0 mps 742 mmHg 86%
    09:00 -6°C° 0 mm 0 mps 743 mmHg 82%
    10:00 -5°C° 0 mm 0 mps 743 mmHg 78%
    11:00 -3°C° 0 mm 1 mps 743 mmHg 78%
    12:00 -2°C° 0 mm 1 mps 743 mmHg 78%
    13:00 -1°C° 0 mm 1 mps 743 mmHg 77%
    14:00 -1°C° 0 mm 1 mps 743 mmHg 81%
    15:00 -1°C° 0 mm 1 mps 743 mmHg 84%
    16:00 -2°C° 0 mm 1 mps 743 mmHg 87%
    17:00 -2°C° 0 mm 1 mps 743 mmHg 89%
    18:00 -3°C° 0 mm 1 mps 744 mmHg 91%
    19:00 -4°C° 0 mm 0 mps 744 mmHg 93%
    20:00 -4°C° 0 mm 0 mps 744 mmHg 93%
    21:00 -5°C° 0 mm 0 mps 744 mmHg 93%
    22:00 -5°C° 0 mm 0 mps 744 mmHg 93%
    23:00 -5°C° 0 mm 0 mps 744 mmHg 93%

    Tomorrow, 22 January, Monday

    Time Temperature Precipitation Wind Pressure Humidity
    00:00 -4°C° 0 mm 1 mps 745 mmHg 93%
    01:00 -4°C° 0 mm 1 mps 745 mmHg 93%
    02:00 -4°C° 0 mm 1 mps 745 mmHg 93%
    03:00 -6°C° 0 mm 2 mps 745 mmHg 93%
    04:00 -6°C° 0 mm 2 mps 746 mmHg 93%
    05:00 -7°C° 0 mm 2 mps 746 mmHg 92%
    06:00 -8°C° 0 mm 3 mps 747 mmHg 91%
    07:00 -9°C° 0 mm 3 mps 747 mmHg 90%
    08:00 -9°C° 0 mm 3 mps 747 mmHg 87%
    09:00 -10°C° 0 mm 3 mps 747 mmHg 84%
    10:00 -11°C° 0 mm 4 mps 748 mmHg 81%
    11:00 -10°C° 0 mm 4 mps 747 mmHg 78%
    12:00 -10°C° 0 mm 4 mps 747 mmHg 75%
    13:00 -9°C° 0 mm 4 mps 746 mmHg 72%
    14:00 -9°C° 0 mm 4 mps 746 mmHg 72%
    15:00 -10°C° 0 mm 4 mps 745 mmHg 72%
    16:00 -11°C° 0 mm 5 mps 745 mmHg 73%
    17:00 -11°C° 0.5 mm 5 mps 744 mmHg 79%
    18:00 -11°C° 0.5 mm 5 mps 744 mmHg 86%
    19:00 -12°C° 0.5 mm 6 mps 743 mmHg 92%
    20:00 -11°C° 1.5 mm 6 mps 742 mmHg 93%
    21:00 -11°C° 1.5 mm 6 mps 742 mmHg 94%
    22:00 -11°C° 1.5 mm 6 mps 741 mmHg 94%
    23:00 -10°C° 1.3 mm 6 mps 740 mmHg 94%

    Day after tomorrow, 23 January, Tuesday

    Time Temperature Precipitation Wind Pressure Humidity
    00:00 -10°C° 1.3 mm 6 mps 739 mmHg 94%
    01:00 -9°C° 1.3 mm 6 mps 738 mmHg 95%
    02:00 -8°C° 1.6 mm 5 mps 737 mmHg 95%
    03:00 -7°C° 1.6 mm 5 mps 735 mmHg 96%
    04:00 -7°C° 1.6 mm 5 mps 734 mmHg 96%
    05:00 -5°C° 1.3 mm 4 mps 733 mmHg 96%
    06:00 -5°C° 1.3 mm 4 mps 732 mmHg 96%
    07:00 -4°C° 1.3 mm 4 mps 731 mmHg 96%
    08:00 -4°C° 1 mm 4 mps 731 mmHg 97%
    09:00 -2°C° 1 mm 3 mps 730 mmHg 97%
    10:00 -2°C° 1 mm 3 mps 729 mmHg 98%
    11:00 -1°C° 0.2 mm 3 mps 728 mmHg 98%
    12:00 -1°C° 0.2 mm 2 mps 727 mmHg 99%
    13:00 +1°C° 0.2 mm 2 mps 726 mmHg 99%
    14:00 +1°C° 0.4 mm 2 mps 726 mmHg 99%
    15:00 +1°C° 0.4 mm 2 mps 725 mmHg 99%
    16:00 +1°C° 0.4 mm 2 mps 725 mmHg 99%
    17:00 0°C° 0.3 mm 3 mps 725 mmHg 98%
    18:00 -1°C° 0.3 mm 4 mps 725 mmHg 97%
    19:00 -1°C° 0.3 mm 4 mps 724 mmHg 97%
    20:00 -1°C° 0.4 mm 5 mps 724 mmHg 96%
    21:00 -1°C° 0.4 mm 5 mps 724 mmHg 95%
    22:00 -1°C° 0.4 mm 5 mps 724 mmHg 94%
    23:00 -4°C° 0.1 mm 6 mps 725 mmHg 91%

    24 January, Wednesday

    Time Temperature Precipitation Wind Pressure Humidity
    00:00 -6°C° 0.1 mm 6 mps 725 mmHg 88%
    01:00 -11°C° 0.1 mm 7 mps 726 mmHg 85%
    02:00 -12°C° 0 mm 7 mps 727 mmHg 84%
    03:00 -13°C° 0 mm 7 mps 728 mmHg 83%
    04:00 -14°C° 0 mm 7 mps 729 mmHg 81%
    05:00 -15°C° 0 mm 6 mps 730 mmHg 81%
    06:00 -16°C° 0 mm 6 mps 732 mmHg 81%
    07:00 -16°C° 0 mm 6 mps 733 mmHg 81%
    08:00 -17°C° 0 mm 6 mps 734 mmHg 81%
    09:00 -17°C° 0 mm 6 mps 734 mmHg 80%
    10:00 -17°C° 0 mm 6 mps 735 mmHg 79%
    11:00 -16°C° 0 mm 6 mps 735 mmHg 79%
    12:00 -16°C° 0 mm 6 mps 736 mmHg 79%
    13:00 -15°C° 0 mm 6 mps 736 mmHg 79%
    14:00 -15°C° 0 mm 6 mps 736 mmHg 80%
    15:00 -15°C° 0 mm 5 mps 737 mmHg 80%
    16:00 -15°C° 0 mm 5 mps 737 mmHg 81%
    17:00 -17°C° 0 mm 5 mps 738 mmHg 81%
    18:00 -18°C° 0 mm 5 mps 739 mmHg 81%
    19:00 -19°C° 0 mm 5 mps 740 mmHg 82%
    20:00 -20°C° 0 mm 5 mps 740 mmHg 82%
    21:00 -21°C° 0 mm 5 mps 740 mmHg 82%
    22:00 -22°C° 0 mm 4 mps 741 mmHg 82%
    23:00 -22°C° 0 mm 4 mps 741 mmHg 82%

    25 January, Thursday

    Time Temperature Precipitation Wind Pressure Humidity
    00:00 -23°C° 0 mm 4 mps 741 mmHg 82%
    01:00 -24°C° 0 mm 4 mps 742 mmHg 83%
    02:00 -24°C° 0 mm 4 mps 742 mmHg 83%
    03:00 -25°C° 0 mm 4 mps 743 mmHg 83%
    04:00 -25°C° 0 mm 4 mps 743 mmHg 83%
    05:00 -25°C° 0 mm 3 mps 744 mmHg 83%
    06:00 -25°C° 0 mm 3 mps 744 mmHg 83%
    07:00 -26°C° 0 mm 3 mps 745 mmHg 84%
    08:00 -26°C° 0 mm 4 mps 746 mmHg 83%
    09:00 -25°C° 0 mm 4 mps 746 mmHg 81%
    10:00 -24°C° 0 mm 4 mps 747 mmHg 80%
    11:00 -23°C° 0 mm 4 mps 747 mmHg 79%
    12:00 -22°C° 0 mm 4 mps 747 mmHg 78%
    13:00 -20°C° 0 mm 4 mps 746 mmHg 77%
    14:00 -19°C° 0 mm 4 mps 747 mmHg 78%
    15:00 -19°C° 0 mm 4 mps 747 mmHg 79%
    16:00 -19°C° 0 mm 4 mps 747 mmHg 79%
    17:00 -20°C° 0 mm 4 mps 748 mmHg 81%
    18:00 -20°C° 0 mm 4 mps 749 mmHg 83%
    19:00 -22°C° 0 mm 4 mps 749 mmHg 85%
    20:00 -21°C° 0 mm 3 mps 749 mmHg 86%
    21:00 -21°C° 0 mm 3 mps 750 mmHg 86%
    22:00 -22°C° 0 mm 3 mps 750 mmHg 87%
    23:00 -22°C° 0 mm 3 mps 750 mmHg 88%

    26 January, Friday

    Time Temperature Precipitation Wind Pressure Humidity
    00:00 -21°C° 0 mm 2 mps 750 mmHg 89%
    01:00 -21°C° 0 mm 2 mps 751 mmHg 90%
    02:00 -21°C° 0 mm 2 mps 751 mmHg 90%
    03:00 -23°C° 0 mm 2 mps 751 mmHg 91%
    04:00 -23°C° 0 mm 2 mps 751 mmHg 91%
    05:00 -20°C° 0 mm 1 mps 752 mmHg 91%
    06:00 -20°C° 0 mm 1 mps 752 mmHg 91%
    07:00 -20°C° 0 mm 1 mps 753 mmHg 91%
    08:00 -19°C° 0 mm 1 mps 753 mmHg 89%
    09:00 -17°C° 0 mm 1 mps 753 mmHg 86%
    10:00 -15°C° 0 mm 1 mps 754 mmHg 84%
    11:00 -13°C° 0 mm 1 mps 753 mmHg 83%
    12:00 -12°C° 0 mm 1 mps 753 mmHg 82%
    13:00 -10°C° 0 mm 1 mps 752 mmHg 81%
    14:00 -10°C° 0 mm 1 mps 752 mmHg 84%
    15:00 -10°C° 0 mm 1 mps 752 mmHg 86%
    16:00 -10°C° 0 mm 1 mps 752 mmHg 89%
    17:00 -11°C° 0 mm 1 mps 752 mmHg 90%
    18:00 -13°C° 0 mm 1 mps 752 mmHg 91%
    19:00 -14°C° 0 mm 0 mps 752 mmHg 93%
    20:00 -14°C° 0 mm 1 mps 752 mmHg 92%
    21:00 -14°C° 0 mm 1 mps 752 mmHg 92%
    22:00 -14°C° 0 mm 1 mps 752 mmHg 92%
    23:00 -14°C° 0 mm 1 mps 751 mmHg 92%
    Show more